Regional Weather Roundup
Issued by NWS

Home | Current Version | Previous Version | Graphics & Text | Print | Product List | Glossary On
Versions: 1 2 3 4 5 6 7 8 9 10 11 12 13 14 15 16 17 18 19 20 21 22 23 24 25 26 27 28 29 30 31 32 33 34 35 36 37 38 39 40 41 42 43 44 45 46 47 48 49 50
000
ASUS43 KBIS 271610
RWRND

NORTH DAKOTA REGIONAL WEATHER ROUNDUP
NATIONAL WEATHER SERVICE BISMARCK ND
1100 AM CDT MON APR 27 2015

NOTE: "FAIR" INDICATES FEW OR NO CLOUDS BELOW 12,000 FEET WITH NO
SIGNIFICANT WEATHER AND/OR OBSTRUCTIONS TO VISIBILITY.


NDZ001>003-009>011-017-271700-
NORTHWEST NORTH DAKOTA

CITY           SKY/WX    TMP DP  RH WIND       PRES   REMARKS
WILLISTON      LGT RAIN  45  38  76 NW7       30.33R
MINOT          LGT RAIN  42  39  89 NW9       30.30R FOG
MINOT AFB      LGT RAIN  42  42 100 NW9       30.29R
$$

NDZ018>021-031>035-040>046-271700-
SOUTHWEST NORTH DAKOTA

CITY           SKY/WX    TMP DP  RH WIND       PRES   REMARKS
BISMARCK       CLOUDY    49  43  80 N7        30.28R
DICKINSON      CLOUDY    41  38  89 NW10      30.31R
GARRISON         N/A     42  39  89 NW13      30.30R
HETTINGER ARPT CLOUDY    42  39  89 N15       30.31R FOG
$$

NDZ004>008-012>016-024-026-027-054-271700-
NORTHEAST NORTH DAKOTA

CITY           SKY/WX    TMP DP  RH WIND       PRES   REMARKS
GRAND FORKS    CLOUDY    62  45  53 VRB6      30.22S
GRND FRKS AFB  MOSUNNY   60  45  57 NE3       30.22S
DEVILS LAKE    PTSUNNY   52  39  62 N10       30.24S
$$

NDZ022-023-025-028>030-036>039-047>053-271700-
SOUTHEAST NORTH DAKOTA

CITY           SKY/WX    TMP DP  RH WIND       PRES   REMARKS
FARGO          MOSUNNY   62  27  26 SW6       30.24S
JAMESTOWN      MOSUNNY   61  36  39 W7        30.22S
$$




USA.gov is the U.S. government's official web portal to all federal, state and local government web resources and services.